Flag for Finland Weather past 2 weeks in Helsinki, Finland

Now
34 °F

Low clouds.


Feels Like: 30 °F
Forecast: 30 / 35 °F
Wind: 5 mph from Southeast

Location: Helsinki Malmi Airport

Current Time: Feb 27, 2015 at 3:13:21 AM

Latest Report: Feb 27, 2015 at 2:50 AM


Visibility: 6 mi

Pressure: 30.21 "Hg

Humidity: 93%

Dew point: 32 °F

Location of HelsinkiLocation

Historic Weather in Helsinki — Graph

°F

Helsinki temperature yesterday

Maximum temperature yesterday: 36 °F (at 11:20 AM)
Minimum temperature yesterday: 32 °F (at 6:50 PM)
Average temperature yesterday: 34 °F

Past Weeks' High & Low Weather Summary

 TemperatureHumidityPressure
High39 °F (Feb 19, 6:50 PM)100% (Feb 13, 1:50 AM)30.83 "Hg (Feb 13, 1:50 AM)
Low12 °F (Feb 16, 2:50 AM)43% (Feb 15, 2:20 PM)29.18 "Hg (Feb 22, 8:50 AM)
Average33 °F85%29.95 "Hg
* Reported Feb 12 2:20 AM — Feb 27 1:50 AM, Helsinki, Weather by CustomWeather, © 2015

Note: Actual official high and low records may vary slightly from our data, if they occured in-between our weather recording intervals... More about our weather records

Advertising

Helsinki weather history for previous 24 hours

 ConditionsComfort  
Time TempWeatherWind HumidityBarometerVisibility
1:50 AM
Fri, Feb 27
34 °FLow clouds.3 mph93%30.21 "Hg4 mi
1:20 AM34 °FLow clouds.5 mph93%30.21 "Hg3 mi
12:50 AM34 °FFog.3 mph100%30.21 "Hg2 mi
12:20 AM34 °FLow clouds.3 mph100%30.21 "HgN/A
11:50 PM
Thu, Feb 26
34 °FFog.1 mph93%30.21 "Hg2 mi
11:20 PM34 °FFog.1 mph93%30.21 "Hg2 mi
10:50 PM34 °FFog.3 mph93%30.21 "Hg3 mi
10:20 PM34 °FLow clouds.3 mph93%30.21 "Hg3 mi
9:50 PM34 °FLow clouds.3 mph93%30.21 "Hg6 mi
9:20 PM32 °FLow clouds.3 mph100%30.24 "Hg6 mi
8:50 PM32 °FLow clouds.3 mph100%30.24 "Hg4 mi
8:20 PM32 °FLow clouds.6 mph100%30.24 "Hg4 mi
7:50 PM32 °FLow clouds.6 mph100%30.24 "Hg4 mi
7:20 PM32 °FLow clouds.6 mph100%30.21 "Hg3 mi
6:50 PM32 °FLow clouds.6 mph100%30.21 "Hg4 mi
6:20 PM34 °FLow clouds.3 mph93%30.21 "Hg4 mi
5:50 PM34 °FLow clouds.2 mph93%30.21 "Hg4 mi
5:20 PM34 °FLow clouds.6 mph93%30.21 "Hg4 mi
4:50 PM34 °FLow clouds.5 mph93%30.21 "Hg4 mi
4:20 PM34 °FLow clouds.5 mph93%30.21 "Hg4 mi
3:50 PM34 °FLow clouds.3 mph100%30.21 "Hg5 mi
3:20 PM34 °FLow clouds.6 mph93%30.21 "Hg5 mi
2:50 PM34 °FLow clouds.5 mph100%30.21 "Hg5 mi
2:20 PM34 °FLow clouds.5 mph93%30.21 "Hg5 mi
1:50 PM36 °FLow clouds.5 mph93%30.21 "Hg5 mi
1:20 PM36 °FLow clouds.6 mph93%30.21 "Hg4 mi
12:50 PM36 °FLow clouds.5 mph93%30.21 "Hg6 mi
12:20 PM36 °FPartly sunny.3 mph93%30.21 "HgN/A
11:50 AM36 °FPartly sunny.6 mph87%30.21 "HgN/A
11:20 AM36 °FLow clouds.5 mph93%30.21 "Hg5 mi
10:50 AM34 °FLow clouds.5 mph100%30.21 "Hg4 mi
10:20 AM34 °FLow clouds.5 mph100%30.21 "Hg4 mi
9:50 AM34 °FPartly sunny.6 mph100%30.21 "Hg4 mi
9:20 AM34 °FFog.6 mph100%30.18 "Hg2 mi
8:50 AM34 °FFog.3 mph100%30.18 "Hg2 mi
7:50 AM34 °FFog.5 mph100%30.18 "Hg2 mi
7:20 AM34 °FFog.5 mph100%30.18 "Hg2 mi
6:50 AM34 °FFog.5 mph100%30.18 "Hg2 mi
5:50 AM34 °FFog.5 mph100%30.18 "Hg2 mi
5:20 AM34 °FFog.5 mph100%30.18 "Hg1 mi
4:50 AM34 °FFog.5 mph100%30.15 "Hg2 mi
4:20 AM34 °FFog.3 mph100%30.15 "Hg2 mi
3:50 AM34 °FFog.5 mph100%30.15 "Hg2 mi
3:20 AM34 °FFog.2 mph100%30.15 "Hg2 mi
Weather by CustomWeather, © 2015

See weather overviewHow to use our weather pages